| time (UTC) | temp F | wind direction | speed MPH | gust MPH | rain 1hr in | rain 24hr in | rain mn in | humidity % | barometer mb |
| 20260906035639 | 76 | 60 | 5.0 | 7.0 | 0.00 | 0.00 | 0.00 | 95 | 1017.4 |
| 20260906035135 | 76 | 41 | 7.0 | 8.0 | 0.00 | 0.00 | 0.00 | 95 | 1017.4 |
| 20260906034629 | 76 | 46 | 6.0 | 7.0 | 0.00 | 0.00 | 0.00 | 95 | 1017.3 |
| 20260906034124 | 77 | 56 | 5.0 | 8.0 | 0.00 | 0.00 | 0.00 | 94 | 1017.4 |
| 20260906033620 | 77 | 55 | 6.0 | 9.0 | 0.00 | 0.00 | 0.00 | 94 | 1017.2 |
| 20260906033120 | 78 | 65 | 7.0 | 9.0 | 0.00 | 0.00 | 0.00 | 93 | 1017.0 |
| 20260906032617 | 78 | 64 | 8.0 | 10.0 | 0.00 | 0.00 | 0.00 | 93 | 1017.4 |
| 20260906032116 | 78 | 76 | 8.0 | 10.0 | 0.00 | 0.00 | 0.00 | 93 | 1017.1 |
| 20260906031612 | 78 | 63 | 7.0 | 11.0 | 0.00 | 0.00 | 0.00 | 93 | 1017.0 |
| 20260906031107 | 78 | 62 | 7.0 | 9.0 | 0.00 | 0.00 | 0.00 | 93 | 1017.3 |
| 20260906030606 | 78 | 53 | 8.0 | 10.0 | 0.00 | 0.00 | 0.00 | 93 | 1017.1 |
| 20260906025601 | 78 | 52 | 8.0 | 9.0 | 0.00 | 0.00 | 0.00 | 94 | 1016.9 |
| 20260906025059 | 79 | 56 | 6.0 | 9.0 | 0.00 | 0.00 | 0.00 | 93 | 1016.9 |
| 20260906024555 | 79 | 48 | 4.0 | 6.0 | 0.00 | 0.00 | 0.00 | 94 | 1017.0 |
| 20260906024049 | 79 | 50 | 6.0 | 8.0 | 0.00 | 0.00 | 0.00 | 93 | 1016.7 |
| 20260906023545 | 79 | 55 | 6.0 | 8.0 | 0.00 | 0.00 | 0.00 | 93 | 1017.1 |
| 20260906023040 | 80 | 60 | 5.0 | 6.0 | 0.00 | 0.00 | 0.00 | 93 | 1016.8 |
| 20260906022536 | 80 | 64 | 4.0 | 4.0 | 0.00 | 0.00 | 0.00 | 92 | 1016.7 |
| 20260906022031 | 80 | 7 | 4.0 | 7.0 | 0.00 | 0.00 | 0.00 | 92 | 1016.6 |
| 20260906021526 | 80 | 50 | 3.0 | 3.0 | 0.00 | 0.00 | 0.00 | 92 | 1016.5 |
| 20260906021020 | 81 | 58 | 7.0 | 9.0 | 0.00 | 0.00 | 0.00 | 91 | 1016.6 |
| 20260906020519 | 81 | 50 | 5.0 | 8.0 | 0.00 | 0.00 | 0.00 | 91 | 1016.1 |
| 20260906020019 | 81 | 57 | 5.0 | 7.0 | 0.00 | 0.00 | 0.00 | 91 | 1016.1 |
| 20260906015518 | 81 | 48 | 6.0 | 7.0 | 0.00 | 0.00 | 0.00 | 90 | 1016.2 |
| 20260906015012 | 81 | 50 | 4.0 | 8.0 | 0.00 | 0.00 | 0.00 | 90 | 1016.0 |
| 20260906014507 | 82 | 60 | 3.0 | 6.0 | 0.00 | 0.00 | 0.00 | 90 | 1016.1 |
| 20260906014003 | 82 | 62 | 4.0 | 6.0 | 0.00 | 0.00 | 0.00 | 90 | 1015.9 |
| 20260906013458 | 82 | 32 | 1.0 | 3.0 | 0.00 | 0.00 | 0.00 | 89 | 1015.9 |
| 20260906012948 | 82 | 35 | 2.0 | 4.0 | 0.00 | 0.00 | 0.00 | 90 | 1015.6 |
| 20260906012443 | 82 | 6 | 3.0 | 3.0 | 0.00 | 0.00 | 0.00 | 90 | 1015.7 |
| 20260906011942 | 82 | 37 | 1.0 | 2.0 | 0.00 | 0.00 | 0.00 | 90 | 1015.9 |
| 20260906011438 | 82 | 13 | 2.0 | 2.0 | 0.00 | 0.00 | 0.00 | 89 | 1015.8 |
| 20260906010933 | 83 | 28 | 2.0 | 2.0 | 0.00 | 0.00 | 0.00 | 89 | 1015.6 |
| 20260906010428 | 83 | 4 | 1.0 | 2.0 | 0.00 | 0.00 | 0.00 | 89 | 1015.6 |
| 20260906005925 | 83 | 12 | 2.0 | 3.0 | 0.00 | 0.00 | 0.00 | 89 | 1015.6 |
| 20260906005424 | 83 | 37 | 2.0 | 3.0 | 0.00 | 0.00 | 0.00 | 88 | 1015.6 |
| 20260906004922 | 83 | 35 | 3.0 | 3.0 | 0.00 | 0.00 | 0.00 | 89 | 1015.7 |
| 20260906004417 | 83 | 32 | 3.0 | 3.0 | 0.00 | 0.00 | 0.00 | 89 | 1015.7 |
| 20260906003913 | 84 | 38 | 2.0 | 2.0 | 0.00 | 0.00 | 0.00 | 88 | 1015.4 |
| 20260906003408 | 84 | 55 | 1.0 | 2.0 | 0.00 | 0.00 | 0.00 | 88 | 1015.6 |
| 20260906002903 | 84 | 22 | 2.0 | 2.0 | 0.00 | 0.00 | 0.00 | 88 | 1015.5 |
| 20260906002403 | 85 | 50 | 1.0 | 2.0 | 0.00 | 0.00 | 0.00 | 87 | 1015.6 |
| 20260906001858 | 85 | 38 | 1.0 | 3.0 | 0.00 | 0.00 | 0.00 | 86 | 1015.5 |
| 20260906001353 | 85 | 34 | 1.0 | 2.0 | 0.00 | 0.00 | 0.00 | 86 | 1015.5 |
| 20260906000848 | 85 | 11 | 0.0 | 1.0 | 0.00 | 0.00 | 0.00 | 86 | 1015.7 |
| 20260906000348 | 86 | 53 | 2.0 | 3.0 | 0.00 | 0.00 | 0.00 | 85 | 1015.6 |
| 20260905235843 | 86 | 59 | 0.0 | 2.0 | 0.00 | 0.00 | 0.00 | 85 | 1015.6 |
| 20260905235337 | 87 | 32 | 0.0 | 1.0 | 0.00 | 0.00 | 0.00 | 83 | 1015.6 |
| 20260905234833 | 87 | 50 | 0.0 | 2.0 | 0.00 | 0.00 | 0.00 | 83 | 1015.5 |
| 20260905234328 | 87 | 40 | 2.0 | 3.0 | 0.00 | 0.00 | 0.00 | 83 | 1015.5 |
| 20260905233823 | 88 | 53 | 3.0 | 4.0 | 0.00 | 0.00 | 0.00 | 81 | 1015.5 |
| 20260905233318 | 88 | 56 | 4.0 | 4.0 | 0.00 | 0.00 | 0.00 | 81 | 1015.3 |
| 20260905232817 | 89 | 62 | 1.0 | 4.0 | 0.00 | 0.00 | 0.00 | 81 | 1015.6 |
| 20260905232313 | 89 | 47 | 2.0 | 3.0 | 0.00 | 0.00 | 0.00 | 79 | 1015.4 |
| 20260905231809 | 89 | 26 | 2.0 | 3.0 | 0.00 | 0.00 | 0.00 | 79 | 1015.4 |
| 20260905231304 | 89 | 81 | 2.0 | 6.0 | 0.00 | 0.00 | 0.00 | 78 | 1015.2 |
| 20260905230800 | 89 | 62 | 3.0 | 6.0 | 0.00 | 0.00 | 0.00 | 76 | 1015.1 |
| 20260905230258 | 90 | 58 | 3.0 | 6.0 | 0.00 | 0.00 | 0.00 | 76 | 1015.1 |
| 20260905225758 | 90 | 88 | 4.0 | 8.0 | 0.00 | 0.00 | 0.00 | 76 | 1015.1 |
| 20260905225253 | 90 | 53 | 4.0 | 8.0 | 0.00 | 0.00 | 0.00 | 76 | 1015.2 |
| 20260905224752 | 90 | 51 | 5.0 | 7.0 | 0.00 | 0.00 | 0.00 | 75 | 1015.2 |
| 20260905224248 | 90 | 52 | 6.0 | 9.0 | 0.00 | 0.00 | 0.00 | 76 | 1015.1 |
| 20260905223743 | 91 | 68 | 5.0 | 9.0 | 0.00 | 0.00 | 0.00 | 74 | 1015.2 |
| 20260905223240 | 91 | 348 | 2.0 | 8.0 | 0.00 | 0.00 | 0.00 | 74 | 1015.2 |
| 20260905222736 | 91 | 27 | 2.0 | 8.0 | 0.00 | 0.00 | 0.00 | 72 | 1015.5 |
| 20260905222234 | 91 | 56 | 3.0 | 11.0 | 0.00 | 0.00 | 0.00 | 72 | 1015.4 |
| 20260905221731 | 91 | 4 | 4.0 | 8.0 | 0.00 | 0.00 | 0.00 | 71 | 1015.1 |
| 20260905221227 | 92 | 330 | 4.0 | 6.0 | 0.00 | 0.00 | 0.00 | 73 | 1015.2 |
| 20260905220723 | 92 | 36 | 4.0 | 9.0 | 0.00 | 0.00 | 0.00 | 69 | 1015.3 |
| 20260905220219 | 92 | 38 | 4.0 | 6.0 | 0.00 | 0.00 | 0.00 | 70 | 1015.2 |
| 20260905215718 | 92 | 92 | 3.0 | 7.0 | 0.00 | 0.00 | 0.00 | 70 | 1015.4 |
| 20260905215214 | 92 | 358 | 2.0 | 8.0 | 0.00 | 0.00 | 0.00 | 70 | 1015.3 |
| 20260905214710 | 92 | 343 | 4.0 | 7.0 | 0.00 | 0.00 | 0.00 | 69 | 1015.3 |
| 20260905214205 | 92 | 67 | 4.0 | 8.0 | 0.00 | 0.00 | 0.00 | 70 | 1015.4 |
| 20260905213700 | 92 | 345 | 4.0 | 9.0 | 0.00 | 0.00 | 0.00 | 68 | 1015.2 |
| 20260905213156 | 92 | 30 | 5.0 | 6.0 | 0.00 | 0.00 | 0.00 | 70 | 1015.3 |
| 20260905212651 | 92 | 43 | 9.0 | 11.0 | 0.00 | 0.00 | 0.00 | 68 | 1015.5 |
| 20260905212150 | 92 | 346 | 7.0 | 10.0 | 0.00 | 0.00 | 0.00 | 69 | 1015.5 |
| 20260905211645 | 92 | 38 | 4.0 | 6.0 | 0.00 | 0.00 | 0.00 | 69 | 1015.4 |
| 20260905211140 | 92 | 0 | 5.0 | 10.0 | 0.00 | 0.00 | 0.00 | 68 | 1015.4 |
| 20260905210636 | 92 | 76 | 4.0 | 11.0 | 0.00 | 0.00 | 0.00 | 68 | 1015.3 |
| 20260905210131 | 92 | 31 | 7.0 | 9.0 | 0.00 | 0.00 | 0.00 | 69 | 1015.4 |
| 20260905205625 | 92 | 32 | 7.0 | 11.0 | 0.00 | 0.00 | 0.00 | 69 | 1015.5 |
| 20260905205124 | 92 | 7 | 10.0 | 13.0 | 0.00 | 0.00 | 0.00 | 68 | 1015.5 |
| 20260905204618 | 92 | 38 | 4.0 | 9.0 | 0.00 | 0.00 | 0.00 | 69 | 1015.7 |
| 20260905204114 | 91 | 7 | 5.0 | 9.0 | 0.00 | 0.00 | 0.00 | 70 | 1015.6 |
| 20260905203614 | 91 | 337 | 5.0 | 8.0 | 0.00 | 0.00 | 0.00 | 74 | 1015.7 |
| 20260905203109 | 91 | 352 | 5.0 | 7.0 | 0.00 | 0.00 | 0.00 | 71 | 1015.6 |
| 20260905202604 | 92 | 354 | 7.0 | 8.0 | 0.00 | 0.00 | 0.00 | 69 | 1015.8 |
| 20260905202059 | 92 | 3 | 5.0 | 9.0 | 0.00 | 0.00 | 0.00 | 73 | 1015.9 |
| 20260905201555 | 91 | 48 | 4.0 | 7.0 | 0.00 | 0.00 | 0.00 | 73 | 1015.8 |
| 20260905201054 | 91 | 34 | 4.0 | 8.0 | 0.00 | 0.00 | 0.00 | 73 | 1015.5 |
| 20260905200550 | 91 | 355 | 6.0 | 9.0 | 0.00 | 0.00 | 0.00 | 72 | 1015.9 |
| 20260905200044 | 91 | 19 | 6.0 | 7.0 | 0.00 | 0.00 | 0.00 | 73 | 1015.6 |
| 20260905195538 | 92 | 33 | 7.0 | 9.0 | 0.00 | 0.00 | 0.00 | 72 | 1016.0 |
| 20260905195033 | 92 | 18 | 6.0 | 8.0 | 0.00 | 0.00 | 0.00 | 71 | 1016.2 |
| 20260905194527 | 92 | 41 | 3.0 | 8.0 | 0.00 | 0.00 | 0.00 | 71 | 1015.9 |
| 20260905194027 | 93 | 350 | 6.0 | 8.0 | 0.00 | 0.00 | 0.00 | 70 | 1016.0 |
| 20260905193522 | 92 | 2 | 4.0 | 6.0 | 0.00 | 0.00 | 0.00 | 65 | 1016.1 |
| 20260905193017 | 92 | 4 | 7.0 | 10.0 | 0.00 | 0.00 | 0.00 | 66 | 1016.1 |
| 20260905192512 | 93 | 13 | 5.0 | 10.0 | 0.00 | 0.00 | 0.00 | 66 | 1016.0 |
| 20260905192009 | 93 | 321 | 6.0 | 7.0 | 0.00 | 0.00 | 0.00 | 64 | 1016.0 |
| 20260905191507 | 94 | 296 | 1.0 | 6.0 | 0.00 | 0.00 | 0.00 | 62 | 1016.0 |
| 20260905191006 | 95 | 269 | 5.0 | 8.0 | 0.00 | 0.00 | 0.00 | 60 | 1015.9 |
| 20260905190504 | 94 | 18 | 6.0 | 8.0 | 0.00 | 0.00 | 0.00 | 62 | 1016.0 |
| 20260905190004 | 94 | 0 | 7.0 | 10.0 | 0.00 | 0.00 | 0.00 | 64 | 1015.8 |
| 20260905185459 | 94 | 312 | 4.0 | 7.0 | 0.00 | 0.00 | 0.00 | 63 | 1016.3 |
| 20260905184957 | 94 | 347 | 2.0 | 7.0 | 0.00 | 0.00 | 0.00 | 61 | 1016.2 |
| 20260905184452 | 94 | 13 | 6.0 | 9.0 | 0.00 | 0.00 | 0.00 | 64 | 1016.1 |
| 20260905183951 | 94 | 36 | 5.0 | 7.0 | 0.00 | 0.00 | 0.00 | 63 | 1016.0 |
| 20260905183451 | 94 | 18 | 5.0 | 8.0 | 0.00 | 0.00 | 0.00 | 62 | 1016.2 |
| 20260905182946 | 94 | 10 | 4.0 | 7.0 | 0.00 | 0.00 | 0.00 | 61 | 1016.4 |
| 20260905182445 | 93 | 0 | 3.0 | 10.0 | 0.00 | 0.00 | 0.00 | 64 | 1016.5 |
| 20260905181940 | 93 | 347 | 4.0 | 4.0 | 0.00 | 0.00 | 0.00 | 68 | 1016.2 |
| 20260905181435 | 94 | 352 | 4.0 | 7.0 | 0.00 | 0.00 | 0.00 | 63 | 1016.2 |
| 20260905180934 | 94 | 347 | 4.0 | 7.0 | 0.00 | 0.00 | 0.00 | 64 | 1016.5 |
| 20260905180429 | 93 | 32 | 2.0 | 6.0 | 0.00 | 0.00 | 0.00 | 65 | 1016.8 |
| 20260905175924 | 93 | 296 | 5.0 | 6.0 | 0.00 | 0.00 | 0.00 | 64 | 1016.6 |
| 20260905175424 | 93 | 349 | 3.0 | 6.0 | 0.00 | 0.00 | 0.00 | 69 | 1016.6 |
| 20260905174919 | 93 | 353 | 7.0 | 8.0 | 0.00 | 0.00 | 0.00 | 65 | 1016.6 |
| 20260905174415 | 92 | 32 | 5.0 | 7.0 | 0.00 | 0.00 | 0.00 | 67 | 1016.6 |
| 20260905173910 | 92 | 312 | 4.0 | 6.0 | 0.00 | 0.00 | 0.00 | 67 | 1016.6 |
| 20260905173406 | 93 | 331 | 4.0 | 6.0 | 0.00 | 0.00 | 0.00 | 68 | 1016.7 |
| 20260905172901 | 92 | 17 | 4.0 | 7.0 | 0.00 | 0.00 | 0.00 | 68 | 1016.8 |
| 20260905172359 | 92 | 41 | 4.0 | 8.0 | 0.00 | 0.00 | 0.00 | 69 | 1016.9 |
| 20260905171855 | 92 | 307 | 4.0 | 7.0 | 0.00 | 0.00 | 0.00 | 72 | 1017.0 |
| 20260905171351 | 92 | 346 | 5.0 | 7.0 | 0.00 | 0.00 | 0.00 | 70 | 1016.9 |
| 20260905170847 | 91 | 264 | 2.0 | 6.0 | 0.00 | 0.00 | 0.00 | 69 | 1016.9 |
| 20260905170338 | 91 | 265 | 5.0 | 8.0 | 0.00 | 0.00 | 0.00 | 70 | 1016.7 |
| 20260905165837 | 92 | 190 | 2.0 | 6.0 | 0.00 | 0.00 | 0.00 | 70 | 1016.8 |
| 20260905165333 | 91 | 305 | 6.0 | 7.0 | 0.00 | 0.00 | 0.00 | 70 | 1016.8 |
| 20260905164832 | 91 | 312 | 5.0 | 7.0 | 0.00 | 0.00 | 0.00 | 70 | 1016.7 |
| 20260905164328 | 90 | 306 | 6.0 | 7.0 | 0.00 | 0.00 | 0.00 | 69 | 1016.9 |
| 20260905163823 | 90 | 317 | 5.0 | 7.0 | 0.00 | 0.00 | 0.00 | 71 | 1016.9 |
| 20260905163319 | 91 | 289 | 5.0 | 8.0 | 0.00 | 0.00 | 0.00 | 68 | 1016.7 |
| 20260905162815 | 91 | 308 | 6.0 | 7.0 | 0.00 | 0.00 | 0.00 | 69 | 1017.0 |
| 20260905162314 | 91 | 291 | 6.0 | 7.0 | 0.00 | 0.00 | 0.00 | 71 | 1016.8 |
| 20260905161809 | 91 | 307 | 6.0 | 8.0 | 0.00 | 0.00 | 0.00 | 69 | 1016.8 |
| 20260905161309 | 92 | 301 | 5.0 | 6.0 | 0.00 | 0.00 | 0.00 | 68 | 1016.9 |
| 20260905160807 | 91 | 323 | 3.0 | 7.0 | 0.00 | 0.00 | 0.00 | 71 | 1016.7 |
| 20260905160301 | 90 | 323 | 5.0 | 9.0 | 0.00 | 0.00 | 0.00 | 71 | 1016.7 |
| 20260905155756 | 90 | 296 | 6.0 | 8.0 | 0.00 | 0.00 | 0.00 | 71 | 1016.7 |
| 20260905155255 | 90 | 251 | 6.0 | 8.0 | 0.00 | 0.00 | 0.00 | 71 | 1016.9 |
| 20260905154749 | 90 | 303 | 5.0 | 8.0 | 0.00 | 0.00 | 0.00 | 73 | 1016.9 |
| 20260905154245 | 90 | 312 | 4.0 | 6.0 | 0.00 | 0.00 | 0.00 | 73 | 1016.8 |
| 20260905153740 | 89 | 289 | 6.0 | 7.0 | 0.00 | 0.00 | 0.00 | 74 | 1016.6 |
| 20260905153236 | 89 | 324 | 6.0 | 9.0 | 0.00 | 0.00 | 0.00 | 75 | 1016.7 |
| 20260905152730 | 89 | 325 | 3.0 | 8.0 | 0.00 | 0.00 | 0.00 | 74 | 1016.6 |
| 20260905152225 | 89 | 309 | 6.0 | 8.0 | 0.00 | 0.00 | 0.00 | 73 | 1016.5 |
| 20260905151724 | 89 | 298 | 9.0 | 10.0 | 0.00 | 0.00 | 0.00 | 73 | 1016.8 |
| 20260905151221 | 88 | 284 | 4.0 | 8.0 | 0.00 | 0.00 | 0.00 | 74 | 1016.5 |
| 20260905150715 | 88 | 316 | 5.0 | 7.0 | 0.00 | 0.00 | 0.00 | 74 | 1016.5 |
| 20260905150215 | 89 | 290 | 4.0 | 6.0 | 0.00 | 0.00 | 0.00 | 75 | 1016.4 |
| 20260905145712 | 88 | 251 | 5.0 | 6.0 | 0.00 | 0.00 | 0.00 | 76 | 1016.4 |
| 20260905145208 | 88 | 247 | 5.0 | 7.0 | 0.00 | 0.00 | 0.00 | 75 | 1016.6 |
| 20260905144706 | 87 | 294 | 4.0 | 6.0 | 0.00 | 0.00 | 0.00 | 77 | 1016.4 |
| 20260905144206 | 87 | 267 | 6.0 | 7.0 | 0.00 | 0.00 | 0.00 | 76 | 1016.5 |
| 20260905143705 | 87 | 320 | 5.0 | 8.0 | 0.00 | 0.00 | 0.00 | 77 | 1016.4 |
| 20260905143200 | 86 | 300 | 5.0 | 6.0 | 0.00 | 0.00 | 0.00 | 76 | 1016.5 |
| 20260905142659 | 86 | 313 | 6.0 | 8.0 | 0.00 | 0.00 | 0.00 | 74 | 1016.3 |
| 20260905142153 | 86 | 275 | 4.0 | 6.0 | 0.00 | 0.00 | 0.00 | 74 | 1016.3 |
| 20260905141648 | 86 | 277 | 2.0 | 6.0 | 0.00 | 0.00 | 0.00 | 76 | 1016.4 |
| 20260905141144 | 86 | 287 | 5.0 | 6.0 | 0.00 | 0.00 | 0.00 | 75 | 1016.2 |
| 20260905140640 | 85 | 256 | 4.0 | 6.0 | 0.00 | 0.00 | 0.00 | 75 | 1016.2 |
| 20260905140138 | 85 | 280 | 4.0 | 6.0 | 0.00 | 0.00 | 0.00 | 76 | 1016.5 |
| 20260905135634 | 84 | 263 | 2.0 | 4.0 | 0.00 | 0.00 | 0.00 | 77 | 1016.2 |
| 20260905135129 | 84 | 242 | 2.0 | 3.0 | 0.00 | 0.00 | 0.00 | 79 | 1015.9 |
| 20260905134623 | 83 | 338 | 3.0 | 3.0 | 0.00 | 0.00 | 0.00 | 79 | 1016.3 |
| 20260905134122 | 83 | 290 | 3.0 | 6.0 | 0.00 | 0.00 | 0.00 | 80 | 1016.4 |
| 20260905133618 | 83 | 302 | 4.0 | 4.0 | 0.00 | 0.00 | 0.00 | 80 | 1016.3 |
| 20260905133118 | 82 | 312 | 3.0 | 4.0 | 0.00 | 0.00 | 0.00 | 82 | 1016.3 |
| 20260905132618 | 81 | 301 | 2.0 | 4.0 | 0.00 | 0.00 | 0.00 | 84 | 1016.3 |
| 20260905132113 | 81 | 317 | 3.0 | 3.0 | 0.00 | 0.00 | 0.00 | 85 | 1016.3 |
| 20260905131608 | 80 | 274 | 2.0 | 3.0 | 0.00 | 0.00 | 0.00 | 86 | 1016.5 |
| 20260905131103 | 80 | 299 | 4.0 | 4.0 | 0.00 | 0.00 | 0.00 | 86 | 1016.4 |
| 20260905130603 | 79 | 282 | 1.0 | 2.0 | 0.00 | 0.00 | 0.00 | 89 | 1016.4 |
| 20260905130057 | 79 | 320 | 1.0 | 2.0 | 0.00 | 0.00 | 0.00 | 90 | 1016.3 |
| 20260905125557 | 78 | 275 | 1.0 | 2.0 | 0.00 | 0.00 | 0.00 | 91 | 1016.3 |
| 20260905125053 | 78 | 281 | 1.0 | 2.0 | 0.00 | 0.00 | 0.00 | 92 | 1016.4 |
| 20260905124549 | 77 | 303 | 1.0 | 2.0 | 0.00 | 0.00 | 0.00 | 93 | 1016.3 |
| 20260905124045 | 76 | 300 | 1.0 | 2.0 | 0.00 | 0.00 | 0.00 | 94 | 1016.3 |
| 20260905123540 | 76 | 263 | 2.0 | 2.0 | 0.00 | 0.00 | 0.00 | 94 | 1016.3 |
| 20260905123037 | 76 | 270 | 1.0 | 1.0 | 0.00 | 0.00 | 0.00 | 94 | 1016.1 |
| 20260905122536 | 76 | 198 | 0.0 | 0.0 | 0.00 | 0.00 | 0.00 | 94 | 1016.2 |
| 20260905122031 | 74 | 157 | 0.0 | 0.0 | 0.00 | 0.00 | 0.00 | 96 | 1016.0 |
| 20260905121526 | 74 | 176 | 0.0 | 2.0 | 0.00 | 0.00 | 0.00 | 97 | 1016.4 |
| 20260905121021 | 73 | 255 | 1.0 | 1.0 | 0.00 | 0.00 | 0.00 | 97 | 1016.4 |
| 20260905120515 | 73 | 236 | 0.0 | 0.0 | 0.00 | 0.00 | 0.00 | 99 | 1016.0 |
| 20260905120010 | 72 | 238 | 0.0 | 1.0 | 0.00 | 0.00 | 0.00 | 99 | 1015.9 |
| 20260905115509 | 72 | 144 | 0.0 | 0.0 | 0.00 | 0.00 | 0.00 | 99 | 1015.8 |
| 20260905115004 | 72 | 144 | 0.0 | 0.0 | 0.00 | 0.00 | 0.00 | 99 | 1015.9 |
| 20260905114458 | 72 | 143 | 0.0 | 0.0 | 0.00 | 0.00 | 0.00 | 99 | 1015.7 |
| 20260905113956 | 71 | 156 | 2.0 | 2.0 | 0.00 | 0.00 | 0.00 | 99 | 1015.6 |
| 20260905113452 | 71 | 155 | 0.0 | 0.0 | 0.00 | 0.00 | 0.00 | 99 | 1015.8 |
| 20260905112948 | 72 | 294 | 2.0 | 2.0 | 0.00 | 0.00 | 0.00 | 99 | 1015.5 |
| 20260905112443 | 72 | 291 | 1.0 | 2.0 | 0.00 | 0.00 | 0.00 | 99 | 1015.6 |
| 20260905111938 | 72 | 292 | 2.0 | 2.0 | 0.00 | 0.00 | 0.00 | 99 | 1015.5 |
| 20260905111432 | 73 | 351 | 1.0 | 1.0 | 0.00 | 0.00 | 0.00 | 99 | 1015.4 |
| 20260905110926 | 72 | 256 | 1.0 | 2.0 | 0.00 | 0.00 | 0.00 | 99 | 1015.5 |
| 20260905110420 | 72 | 315 | 1.0 | 1.0 | 0.00 | 0.00 | 0.00 | 99 | 1015.5 |
| 20260905105914 | 73 | 314 | 1.0 | 2.0 | 0.00 | 0.00 | 0.00 | 99 | 1015.5 |
| 20260905105409 | 73 | 292 | 1.0 | 1.0 | 0.00 | 0.00 | 0.00 | 99 | 1015.3 |
| 20260905104908 | 73 | 339 | 0.0 | 1.0 | 0.00 | 0.00 | 0.00 | 99 | 1015.3 |
| 20260905104404 | 72 | 23 | 1.0 | 2.0 | 0.00 | 0.00 | 0.00 | 99 | 1015.4 |
| 20260905103859 | 72 | 28 | 2.0 | 2.0 | 0.00 | 0.00 | 0.00 | 99 | 1015.3 |
| 20260905103354 | 73 | 26 | 2.0 | 2.0 | 0.00 | 0.00 | 0.00 | 99 | 1015.4 |
| 20260905102850 | 73 | 27 | 0.0 | 0.0 | 0.00 | 0.00 | 0.00 | 99 | 1015.4 |
| 20260905102346 | 73 | 11 | 0.0 | 0.0 | 0.00 | 0.00 | 0.00 | 98 | 1015.4 |
| 20260905101841 | 73 | 9 | 0.0 | 0.0 | 0.00 | 0.00 | 0.00 | 98 | 1015.3 |
| 20260905101339 | 73 | 18 | 0.0 | 0.0 | 0.00 | 0.00 | 0.00 | 98 | 1015.2 |
| 20260905100833 | 73 | 21 | 0.0 | 0.0 | 0.00 | 0.00 | 0.00 | 98 | 1015.5 |
| 20260905100329 | 74 | 15 | 0.0 | 0.0 | 0.00 | 0.00 | 0.00 | 98 | 1015.5 |
| 20260905095828 | 74 | 12 | 0.0 | 0.0 | 0.00 | 0.00 | 0.00 | 98 | 1015.5 |
| 20260905095323 | 74 | 310 | 0.0 | 0.0 | 0.00 | 0.00 | 0.00 | 98 | 1015.6 |
| 20260905094818 | 73 | 293 | 0.0 | 0.0 | 0.00 | 0.00 | 0.00 | 97 | 1015.7 |
| 20260905094314 | 74 | 242 | 2.0 | 2.0 | 0.00 | 0.00 | 0.00 | 97 | 1015.5 |
| 20260905093812 | 74 | 254 | 1.0 | 2.0 | 0.00 | 0.00 | 0.00 | 97 | 1015.6 |
| 20260905093308 | 73 | 238 | 2.0 | 2.0 | 0.00 | 0.00 | 0.00 | 98 | 1015.4 |
| 20260905092804 | 73 | 233 | 2.0 | 3.0 | 0.00 | 0.00 | 0.00 | 98 | 1015.7 |
| 20260905092258 | 74 | 298 | 0.0 | 0.0 | 0.00 | 0.00 | 0.00 | 98 | 1015.6 |
| 20260905091753 | 74 | 305 | 0.0 | 0.0 | 0.00 | 0.00 | 0.00 | 98 | 1015.5 |
| 20260905091253 | 73 | 11 | 0.0 | 0.0 | 0.00 | 0.00 | 0.00 | 98 | 1015.6 |
| 20260905090751 | 73 | 11 | 0.0 | 0.0 | 0.00 | 0.00 | 0.00 | 98 | 1015.6 |
| 20260905090248 | 73 | 72 | 0.0 | 1.0 | 0.00 | 0.00 | 0.00 | 98 | 1015.6 |
| 20260905085742 | 73 | 72 | 0.0 | 1.0 | 0.00 | 0.00 | 0.00 | 98 | 1015.7 |
| 20260905085242 | 74 | 93 | 0.0 | 0.0 | 0.00 | 0.00 | 0.00 | 98 | 1015.7 |
| 20260905084741 | 74 | 114 | 0.0 | 0.0 | 0.00 | 0.00 | 0.00 | 99 | 1015.7 |
| 20260905084236 | 73 | 124 | 0.0 | 0.0 | 0.00 | 0.00 | 0.00 | 99 | 1015.6 |
| 20260905083731 | 73 | 124 | 0.0 | 0.0 | 0.00 | 0.00 | 0.00 | 99 | 1015.5 |
| 20260905083226 | 73 | 124 | 0.0 | 0.0 | 0.00 | 0.00 | 0.00 | 99 | 1015.7 |
| 20260905082722 | 73 | 123 | 0.0 | 0.0 | 0.00 | 0.00 | 0.00 | 99 | 1015.7 |
| 20260905082217 | 73 | 123 | 0.0 | 0.0 | 0.00 | 0.00 | 0.00 | 99 | 1015.9 |
| 20260905081712 | 73 | 138 | 0.0 | 0.0 | 0.00 | 0.00 | 0.00 | 99 | 1016.1 |
| 20260905081207 | 73 | 138 | 0.0 | 0.0 | 0.00 | 0.00 | 0.00 | 99 | 1016.2 |
| 20260905080706 | 73 | 138 | 0.0 | 0.0 | 0.00 | 0.00 | 0.00 | 99 | 1016.1 |
| 20260905080201 | 73 | 138 | 0.0 | 0.0 | 0.00 | 0.00 | 0.00 | 99 | 1016.1 |
| 20260905075700 | 73 | 126 | 0.0 | 0.0 | 0.00 | 0.00 | 0.00 | 98 | 1016.2 |
| 20260905075159 | 74 | 124 | 0.0 | 1.0 | 0.00 | 0.00 | 0.00 | 97 | 1016.0 |
| 20260905074658 | 74 | 269 | 0.0 | 0.0 | 0.00 | 0.00 | 0.00 | 98 | 1016.1 |
| 20260905074154 | 74 | 269 | 0.0 | 0.0 | 0.00 | 0.00 | 0.00 | 98 | 1016.0 |
| 20260905073650 | 74 | 269 | 0.0 | 0.0 | 0.00 | 0.00 | 0.00 | 97 | 1015.7 |
| 20260905073146 | 74 | 270 | 1.0 | 1.0 | 0.00 | 0.00 | 0.00 | 97 | 1015.9 |
| 20260905072645 | 74 | 253 | 1.0 | 2.0 | 0.00 | 0.00 | 0.00 | 97 | 1016.0 |
| 20260905072140 | 74 | 262 | 0.0 | 0.0 | 0.00 | 0.00 | 0.00 | 97 | 1015.9 |
| 20260905071637 | 74 | 268 | 0.0 | 1.0 | 0.00 | 0.00 | 0.00 | 97 | 1015.8 |
| 20260905071132 | 74 | 272 | 1.0 | 2.0 | 0.00 | 0.00 | 0.00 | 98 | 1015.8 |
| 20260905070627 | 74 | 270 | 2.0 | 2.0 | 0.00 | 0.00 | 0.00 | 98 | 1016.0 |
| 20260905070123 | 74 | 278 | 1.0 | 1.0 | 0.00 | 0.00 | 0.00 | 96 | 1016.0 |
| 20260905065621 | 75 | 323 | 0.0 | 0.0 | 0.00 | 0.00 | 0.00 | 94 | 1016.1 |
| 20260905065116 | 76 | 46 | 0.0 | 0.0 | 0.00 | 0.00 | 0.00 | 94 | 1016.2 |
| 20260905064611 | 76 | 46 | 0.0 | 0.0 | 0.00 | 0.00 | 0.00 | 94 | 1016.0 |
| 20260905064107 | 76 | 46 | 0.0 | 0.0 | 0.00 | 0.00 | 0.00 | 95 | 1016.0 |
| 20260905063605 | 76 | 35 | 0.0 | 0.0 | 0.00 | 0.00 | 0.00 | 95 | 1015.9 |
| 20260905063102 | 76 | 35 | 0.0 | 0.0 | 0.00 | 0.00 | 0.00 | 95 | 1016.2 |
| 20260905062557 | 76 | 35 | 0.0 | 0.0 | 0.00 | 0.00 | 0.00 | 94 | 1016.2 |
| 20260905062056 | 76 | 17 | 0.0 | 0.0 | 0.00 | 0.00 | 0.00 | 95 | 1016.3 |
| 20260905061551 | 76 | 31 | 0.0 | 0.0 | 0.00 | 0.00 | 0.00 | 95 | 1016.1 |
| 20260905061050 | 75 | 19 | 0.0 | 0.0 | 0.00 | 0.00 | 0.00 | 96 | 1016.3 |
| 20260905060547 | 75 | 33 | 0.0 | 0.0 | 0.00 | 0.00 | 0.00 | 96 | 1016.2 |
| 20260905060043 | 75 | 43 | 0.0 | 0.0 | 0.00 | 0.00 | 0.00 | 96 | 1016.2 |
| 20260905055541 | 76 | 41 | 1.0 | 1.0 | 0.00 | 0.00 | 0.00 | 95 | 1016.2 |
| 20260905055036 | 76 | 44 | 1.0 | 1.0 | 0.00 | 0.00 | 0.00 | 96 | 1015.9 |
| 20260905054532 | 76 | 41 | 1.0 | 2.0 | 0.00 | 0.00 | 0.00 | 95 | 1016.0 |
| 20260905054027 | 76 | 62 | 1.0 | 2.0 | 0.00 | 0.00 | 0.00 | 94 | 1016.1 |
| 20260905053521 | 76 | 40 | 0.0 | 1.0 | 0.00 | 0.00 | 0.00 | 95 | 1015.8 |
| 20260905053017 | 76 | 39 | 1.0 | 1.0 | 0.00 | 0.00 | 0.00 | 95 | 1015.9 |
| 20260905052516 | 76 | 136 | 0.0 | 0.0 | 0.00 | 0.00 | 0.00 | 94 | 1015.9 |
| 20260905052010 | 76 | 136 | 0.0 | 0.0 | 0.00 | 0.00 | 0.00 | 94 | 1015.7 |
| 20260905051506 | 77 | 171 | 0.0 | 0.0 | 0.00 | 0.00 | 0.00 | 92 | 1015.9 |
| 20260905051003 | 78 | 173 | 1.0 | 2.0 | 0.00 | 0.00 | 0.00 | 92 | 1015.6 |
| 20260905050458 | 79 | 228 | 2.0 | 3.0 | 0.00 | 0.00 | 0.00 | 91 | 1015.7 |
| 20260905045955 | 79 | 229 | 3.0 | 3.0 | 0.00 | 0.00 | 0.00 | 89 | 1015.5 |
| 20260905045449 | 79 | 219 | 4.0 | 4.0 | 0.00 | 0.00 | 0.00 | 90 | 1015.6 |
| 20260905044944 | 79 | 222 | 3.0 | 4.0 | 0.00 | 0.00 | 0.00 | 91 | 1015.5 |
| 20260905044439 | 78 | 217 | 3.0 | 3.0 | 0.00 | 0.00 | 0.00 | 94 | 1015.5 |
| 20260905043939 | 76 | 222 | 2.0 | 2.0 | 0.00 | 0.00 | 0.00 | 97 | 1015.6 |
| 20260905043438 | 76 | 122 | 1.0 | 2.0 | 0.00 | 0.00 | 0.00 | 96 | 1015.7 |
| 20260905042933 | 77 | 104 | 0.0 | 0.0 | 0.00 | 0.00 | 0.00 | 96 | 1016.0 |
| 20260905042427 | 77 | 113 | 0.0 | 0.0 | 0.00 | 0.00 | 0.00 | 96 | 1015.8 |
| 20260905041923 | 77 | 124 | 1.0 | 1.0 | 0.00 | 0.00 | 0.00 | 95 | 1015.9 |
| 20260905041419 | 77 | 134 | 0.0 | 1.0 | 0.00 | 0.00 | 0.00 | 95 | 1015.8 |
| 20260905040918 | 78 | 138 | 1.0 | 1.0 | 0.00 | 0.00 | 0.00 | 95 | 1015.9 |
| 20260905040413 | 78 | 121 | 0.0 | 0.0 | 0.00 | 0.00 | 0.00 | 95 | 1015.9 |